TimeEDT,TemperatureF,Dew PointF,Humidity,Sea Level PressureIn,VisibilityMPH,Wind Direction,Wind SpeedMPH,Gust SpeedMPH,PrecipitationIn,Events,Conditions,WindDirDegrees,DateUTC
12:15 AM,62.6,60.8,94,30.06,10.0,South,3.5,-,N/A,,Overcast,170,2013-07-10 04:15:00
12:35 AM,62.6,60.8,94,30.06,10.0,Calm,Calm,-,N/A,,Overcast,0,2013-07-10 04:35:00
12:55 AM,62.6,60.8,94,30.05,10.0,Calm,Calm,-,N/A,,Overcast,0,2013-07-10 04:55:00
1:15 AM,62.6,60.8,94,30.05,10.0,South,4.6,-,N/A,,Overcast,180,2013-07-10 05:15:00
1:35 AM,62.6,60.8,94,30.05,10.0,South,3.5,-,N/A,,Overcast,170,2013-07-10 05:35:00
1:55 AM,62.6,60.8,94,30.04,10.0,SSE,4.6,-,N/A,,Overcast,160,2013-07-10 05:55:00
2:15 AM,62.6,60.8,94,30.04,10.0,South,3.5,-,N/A,,Overcast,180,2013-07-10 06:15:00
2:35 AM,62.6,60.8,94,30.03,10.0,South,4.6,-,N/A,,Overcast,180,2013-07-10 06:35:00
2:55 AM,62.6,60.8,94,30.03,10.0,South,4.6,-,N/A,,Overcast,180,2013-07-10 06:55:00
3:15 AM,62.6,60.8,94,30.03,10.0,South,3.5,-,N/A,,Overcast,190,2013-07-10 07:15:00
3:35 AM,62.6,60.8,94,30.02,10.0,South,3.5,-,N/A,,Overcast,170,2013-07-10 07:35:00
3:55 AM,62.6,60.8,94,30.02,10.0,Calm,Calm,-,N/A,,Overcast,0,2013-07-10 07:55:00
4:15 AM,62.6,60.8,94,30.02,10.0,Calm,Calm,-,N/A,,Overcast,0,2013-07-10 08:15:00
4:35 AM,62.6,60.8,94,30.02,5.0,Calm,Calm,-,N/A,,Overcast,0,2013-07-10 08:35:00
4:55 AM,60.8,60.8,100,30.02,4.0,South,3.5,-,N/A,,Overcast,190,2013-07-10 08:55:00
5:15 AM,60.8,60.8,100,30.02,4.0,Calm,Calm,-,N/A,,Overcast,0,2013-07-10 09:15:00
5:35 AM,60.8,60.8,100,30.02,5.0,Calm,Calm,-,N/A,,Overcast,0,2013-07-10 09:35:00
5:55 AM,62.6,60.8,94,30.02,5.0,Calm,Calm,-,N/A,,Overcast,0,2013-07-10 09:55:00
6:15 AM,62.6,60.8,94,30.01,5.0,South,3.5,-,N/A,,Overcast,170,2013-07-10 10:15:00
6:35 AM,62.6,60.8,94,30.01,6.0,SSE,3.5,-,N/A,,Overcast,160,2013-07-10 10:35:00
6:55 AM,62.6,60.8,94,30.01,7.0,Calm,Calm,-,N/A,,Overcast,0,2013-07-10 10:55:00
7:15 AM,62.6,60.8,94,30.01,9.0,Calm,Calm,-,N/A,,Overcast,0,2013-07-10 11:15:00
7:35 AM,62.6,60.8,94,30.00,10.0,Calm,Calm,-,N/A,,Overcast,0,2013-07-10 11:35:00
7:55 AM,62.6,60.8,94,29.99,10.0,ENE,3.5,-,N/A,,Overcast,70,2013-07-10 11:55:00
8:15 AM,64.4,62.6,94,30.00,10.0,Calm,Calm,-,N/A,,Overcast,0,2013-07-10 12:15:00
8:35 AM,64.4,62.6,94,30.00,10.0,SW,3.5,-,N/A,,Overcast,230,2013-07-10 12:35:00
8:55 AM,64.4,62.6,94,29.99,10.0,Calm,Calm,-,N/A,,Overcast,0,2013-07-10 12:55:00
9:15 AM,66.2,62.6,88,29.98,10.0,Calm,Calm,-,N/A,,Overcast,0,2013-07-10 13:15:00
9:35 AM,68.0,64.4,88,29.97,10.0,South,5.8,-,N/A,,Overcast,190,2013-07-10 13:35:00
9:55 AM,68.0,62.6,83,29.97,10.0,SSW,5.8,-,N/A,,Overcast,200,2013-07-10 13:55:00
10:15 AM,68.0,64.4,88,29.96,10.0,South,5.8,-,N/A,,Overcast,190,2013-07-10 14:15:00
10:35 AM,68.0,64.4,88,29.96,10.0,SSW,6.9,-,N/A,,Overcast,200,2013-07-10 14:35:00
10:55 AM,66.2,62.6,88,29.96,10.0,SSW,6.9,-,N/A,,Overcast,200,2013-07-10 14:55:00
11:15 AM,68.0,64.4,88,29.96,10.0,South,3.5,-,N/A,,Overcast,170,2013-07-10 15:15:00
11:35 AM,68.0,64.4,88,29.95,10.0,Calm,Calm,-,N/A,,Overcast,0,2013-07-10 15:35:00
11:55 AM,69.8,64.4,83,29.95,10.0,Calm,Calm,-,N/A,,Overcast,0,2013-07-10 15:55:00
12:15 PM,68.0,64.4,88,29.95,10.0,South,3.5,-,N/A,,Overcast,180,2013-07-10 16:15:00
12:35 PM,69.8,64.4,83,29.94,10.0,SSE,4.6,-,N/A,,Overcast,160,2013-07-10 16:35:00
12:55 PM,68.0,64.4,88,29.93,10.0,SSE,4.6,-,N/A,,Overcast,160,2013-07-10 16:55:00
1:15 PM,68.0,62.6,83,29.92,10.0,SE,5.8,-,N/A,,Overcast,130,2013-07-10 17:15:00
1:35 PM,69.8,64.4,83,29.91,10.0,Calm,Calm,-,N/A,,Overcast,0,2013-07-10 17:35:00
1:55 PM,69.8,64.4,83,29.90,10.0,ESE,4.6,-,N/A,,Overcast,120,2013-07-10 17:55:00
2:15 PM,69.8,64.4,83,29.90,10.0,SSE,3.5,-,N/A,,Overcast,160,2013-07-10 18:15:00
2:55 PM,66.2,66.2,100,29.89,6.0,South,5.8,-,0.03,,Overcast,170,2013-07-10 18:55:00
3:15 PM,66.2,66.2,100,29.88,10.0,Calm,Calm,-,N/A,,Overcast,0,2013-07-10 19:15:00
3:35 PM,66.2,66.2,100,29.87,10.0,South,4.6,-,N/A,,Overcast,180,2013-07-10 19:35:00
3:55 PM,66.2,64.4,94,29.87,10.0,South,4.6,-,N/A,,Overcast,170,2013-07-10 19:55:00
4:15 PM,66.2,64.4,94,29.86,10.0,South,3.5,-,N/A,,Overcast,190,2013-07-10 20:15:00
4:35 PM,66.2,64.4,94,29.85,9.0,South,4.6,-,N/A,,Overcast,170,2013-07-10 20:35:00
4:55 PM,66.2,64.4,94,29.84,7.0,Calm,Calm,-,N/A,,Overcast,0,2013-07-10 20:55:00
5:35 PM,66.2,64.4,94,29.83,7.0,SSE,3.5,-,N/A,,Overcast,150,2013-07-10 21:35:00
5:55 PM,66.2,64.4,94,29.83,4.0,South,4.6,-,N/A,,Overcast,180,2013-07-10 21:55:00
6:15 PM,66.2,64.4,94,29.82,3.0,South,4.6,-,N/A,,Overcast,180,2013-07-10 22:15:00
6:35 PM,64.4,62.6,94,29.81,1.8,South,3.5,-,N/A,,Overcast,170,2013-07-10 22:35:00
6:55 PM,64.4,62.6,94,29.81,1.0,South,3.5,-,N/A,,Overcast,180,2013-07-10 22:55:00
7:15 PM,64.4,62.6,94,29.81,1.2,South,4.6,-,N/A,,Overcast,170,2013-07-10 23:15:00
7:35 PM,64.4,62.6,94,29.80,1.8,South,4.6,-,N/A,,Overcast,190,2013-07-10 23:35:00
8:15 PM,64.4,64.4,100,29.80,1.0,South,4.6,-,N/A,,Overcast,180,2013-07-11 00:15:00
8:35 PM,64.4,62.6,94,29.79,2.0,Calm,Calm,-,N/A,,Overcast,0,2013-07-11 00:35:00
8:55 PM,64.4,62.6,94,29.79,2.5,Calm,Calm,-,N/A,,Overcast,0,2013-07-11 00:55:00
9:15 PM,64.4,64.4,100,29.78,3.0,Calm,Calm,-,N/A,,Overcast,0,2013-07-11 01:15:00
9:35 PM,64.4,64.4,100,29.78,3.0,South,3.5,-,N/A,,Overcast,170,2013-07-11 01:35:00
9:55 PM,64.4,62.6,94,29.78,4.0,Calm,Calm,-,0.03,,Overcast,0,2013-07-11 01:55:00
10:15 PM,64.4,62.6,94,29.77,4.0,SSW,3.5,-,N/A,,Overcast,200,2013-07-11 02:15:00
10:35 PM,64.4,64.4,100,29.76,3.0,Calm,Calm,-,N/A,,Overcast,0,2013-07-11 02:35:00
10:55 PM,66.2,64.4,94,29.75,2.5,Calm,Calm,-,N/A,,Overcast,0,2013-07-11 02:55:00
11:15 PM,66.2,64.4,94,29.75,3.0,South,3.5,-,N/A,,Overcast,180,2013-07-11 03:15:00
11:35 PM,66.2,66.2,100,29.75,1.0,SSW,4.6,-,N/A,,Overcast,210,2013-07-11 03:35:00
11:55 PM,66.2,66.2,100,29.76,0.5,SSW,6.9,-,N/A,,Overcast,210,2013-07-11 03:55:00